Lid_Strength_Index
7 7 8 8 8 9 9 9 9 10 10 11 11 11 11 11 11 10 10 10 11 11 11 11 11 11 10 10 10 10 10 10 12 11 10 9 11 11 11 10 9 9 8
7 8 9 9 9 9 9 10 10 11 11 11 11 11 11 11 11 10 11 10 11 11 11 12 11 11 11 10 10 11 11 10 12 13 11 11 11 11 11 11 11 9 9
8 9 9 10 10 12 12 12 11 12 13 12 11 12 12 13 12 10 10 11 11 11 11 11 11 11 12 11 11 11 11 11 11 12 12 11 11 11 11 12 12 11 10
9 9 10 11 11 12 13 13 13 14 14 14 13 14 14 14 14 13 11 11 11 11 11 11 12 11 12 12 12 12 11 12 12 12 12 12 12 11 11 12 13 11 10
10 11 12 12 12 13 13 14 14 14 14 14 14 15 14 14 14 13 12 11 11 12 12 12 11 12 13 12 12 12 12 12 12 12 12 12 12 13 14 13 14 12 11
12 12 12 13 13 13 13 14 14 15 15 14 15 15 15 14 13 12 11 11 12 12 12 12 12 13 12 12 11 12 12 12 12 12 13 14 13 14 14 15 14 14 13
12 12 13 13 13 14 14 14 15 15 14 15 15 15 15 14 13 13 12 12 12 12 13 13 13 12 12 12 12 12 12 12 12 13 14 14 15 14 15 15 15 14 13
13 13 13 13 13 14 14 15 15 14 15 15 15 15 15 15 14 14 13 13 13 13 13 13 13 13 12 13 13 13 13 13 13 13 14 14 14 14 15 15 15 14 13
13 13 13 13 14 14 15 15 14 15 15 15 15 15 15 15 15 15 14 14 14 14 14 14 14 14 13 13 13 14 14 13 12 13 14 14 14 14 14 15 15 15 12
13 13 13 13 13 14 14 14 14 14 14 15 15 15 16 15 15 15 14 14 15 15 15 15 15 14 13 13 14 14 15 14 14 16 16 15 15 15 14 15 15 15 14
12 12 13 13 13 13 14 14 14 15 15 15 15 15 15 16 16 15 14 15 15 15 15 15 15 14 14 14 13 14 14 15 15 17 16 15 15 16 15 15 16 16 16
12 12 13 13 13 13 14 14 15 15 16 16 16 15 15 16 16 15 14 14 14 15 16 15 15 15 15 15 15 14 15 16 16 16 16 17 17 17 17 16 16 16 16
13 13 13 13 13 13 14 15 16 16 16 16 16 15 15 16 16 15 15 14 13 15 16 15 15 15 15 16 16 17 18 16 16 16 17 18 19 19 19 17 17 17 17
13 13 14 14 14 14 14 14 15 15 15 15 16 15 15 16 16 16 16 15 15 14 15 17 16 16 17 17 20 18 18 18 19 18 18 19 18 17 18 18 18 17 14
13 14 15 14 14 14 14 14 14 14 14 14 14 14 15 15 15 15 15 16 15 15 16 17 18 19 19 19 18 19 19 19 19 18 18 19 18 17 18 18 18 16 17
14 15 15 15 15 15 14 14 13 12 12 12 12 13 13 13 12 13 14 14 14 14 18 18 19 19 19 18 18 18 19 21 19 19 19 19 19 19 18 18 17 18 19
13 14 15 15 15 15 15 15 15 14 13 13 13 12 12 13 13 12 13 13 13 14 17 17 17 17 18 18 18 18 18 19 21 19 18 19 20 19 19 19 19 19 20
15 14 14 15 15 15 15 15 14 15 16 15 13 13 13 12 13 13 13 13 15 14 16 16 16 16 17 17 18 18 18 20 21 20 20 20 20 19 19 19 19 20 20
16 15 14 14 14 15 15 15 15 14 14 14 15 15 14 13 13 13 13 14 14 15 15 16 15 16 17 17 17 18 19 19 20 21 20 21 20 20 21 21 23 24 23
17 17 16 15 16 16 16 16 16 16 15 15 15 15 15 16 14 14 13 14 14 14 14 14 15 16 17 17 18 19 19 21 21 21 20 21 21 20 21 23 22 22 22
15 16 15 15 16 16 16 16 15 15 16 16 16 16 16 16 15 14 13 13 13 13 13 14 16 16 17 18 18 19 20 20 20 21 20 20 21 22 22 21 22 23 23
17 18 18 19 19 19 19 19 19 19 19 19 20 19 17 17 16 16 16 16 14 13 13 13 14 15 17 18 18 19 20 19 19 19 19 20 21 22 22 23 23 23 24
20 20 21 21 21 22 22 22 22 22 22 22 22 22 22 21 21 21 21 20 19 17 16 15 14 16 16 17 16 16 17 17 17 17 18 19 20 19 21 22 23 24 24
21 22 22 23 23 23 23 23 23 23 23 23 23 23 23 23 23 22 22 21 21 21 20 19 17 16 16 16 16 15 16 16 17 17 17 18 18 19 20 21 22 23 24
23 23 23 23 23 24 24 24 24 24 24 24 24 24 23 23 23 23 23 22 22 21 21 20 19 19 19 19 18 18 17 18 18 18 18 18 18 19 20 21 21 21 23
24 24 25 24 25 24 25 25 25 25 25 25 24 24 24 24 24 24 24 23 23 23 22 22 21 20 20 19 19 18 18 18 19 18 18 19 20 21 20 21 22 22 23